Location: Alsip
(41.6689°N, 87.7387°W)
Time: 12:59:10
(UTC+00:00)

COSMOS 2455 - Pass Details

Date: 14 July 2020
Orbit: 898 x 911 km, 67.1° (Epoch: 05 August)

Event Time Altitude Azimuth Distance (km) Brightness Sun altitude
Rises 05:07:44 0° 323° (NW) 3,550 7.0 -25.7°
Reaches altitude 10° 05:10:23 10° 317° (NW) 2,604 6.0 -25.8°
Maximum altitude 05:15:58 41° 249° (WSW) 1,298 3.5 -26.0°
Enters shadow 05:16:26 40° 238° (WSW) 1,311 3.5 -26.0°
